sat.trackr.live / text

‹ back to catalog

STARLINK-37223

NORAD 68387 · 2026-063H

PAYLOAD ACTIVE UNKNOWN

§ Identity

Operator
Country
US
Launch date
2026-03-26
Launch site
AFWTR
Launch vehicle
Mass (kg)
RCS (m²)

Purposes: comms

External: N2YO · Heavens-Above · Gunter

§ Orbital elements

Epoch: 2026-09-18T15:21:19.876896Z

Period
93.91 min
Inclination
97.2864°
Eccentricity
0.0000854
Mean motion
15.33441707 rev/d
Perigee alt
465.0 km
Apogee alt
466.1 km
Semi-major
6,843.7 km
B*
5.2440e-4
RAAN
42.5279°
Arg perigee
83.5869°
Mean anomaly
276.5471°
Rev number
2,746

§ Raw data

STARLINK-372231 68387U 26063H   26261.63981339  .00016891  00000+0  52440-3 0  99902 68387  97.2864  42.5279 0000854  83.5869 276.5471 15.33441707 27461

JSON: /api/v1/satellites/68387 · /tle

For live sub-satellite position, see the globe view (requires WebGL).

§ Visibility from observer

Set your observer location to see the next 7 days of passes ≥ 10°. The values pass through the URL so the page stays shareable.

No JS? Fill the form by hand. The geolocation button needs JavaScript.